This is the latest recevied weather packets stored in our database for station/object N4TLC. If no packets are shown the sender has not sent any weather packets the latest 10 day(s).
| Time | Temp. | Humidity | Pressure | Rain* | Wind** | Luminosity | Snow |
|---|---|---|---|---|---|---|---|
| 1777412361 | 16.67° C | 80% | 1019.7 hPa | 0 mm | - | 66 W/m² | - |
| 1777412061 | 16.67° C | 80% | 1019.6 hPa | 0 mm | - | 103 W/m² | - |
| 1777411755 | 16.67° C | 79% | 1019.5 hPa | 0 mm | - | 72 W/m² | - |
| 1777411450 | 16.67° C | 80% | 1019.4 hPa | 0 mm | - | 87 W/m² | - |
| 1777411150 | 16.67° C | 79% | 1019.5 hPa | 0 mm | - | 100 W/m² | - |
| 1777410844 | 16.67° C | 80% | 1019.4 hPa | 0 mm | - | 141 W/m² | - |
| 1777410544 | 16.67° C | 80% | 1019.5 hPa | 0 mm | - | 110 W/m² | - |
| 1777410243 | 16.67° C | 79% | 1019.5 hPa | 0 mm | - | 98 W/m² | - |
| 1777409938 | 16.67° C | 79% | 1019.5 hPa | 0 mm | - | 93 W/m² | - |
| 1777409633 | 16.67° C | 79% | 1019.4 hPa | 0 mm | - | 175 W/m² | - |
| 1777409330 | 16.67° C | 78% | 1019.2 hPa | 0 mm | - | 183 W/m² | - |
| 1777409025 | 16.67° C | 79% | 1019.4 hPa | 0 mm | - | 191 W/m² | - |
| 1777408722 | 16.67° C | 81% | 1019.6 hPa | 0 mm | - | 156 W/m² | - |
| 1777408418 | 16.67° C | 80% | 1019.8 hPa | 0 mm | - | 125 W/m² | - |
| 1777408119 | 16.67° C | 81% | 1019.9 hPa | 0 mm | - | 181 W/m² | - |
| 1777407814 | 16.67° C | 80% | 1020 hPa | 0 mm | - | 130 W/m² | - |
| 1777407511 | 16.67° C | 80% | 1019.9 hPa | 0 mm | - | 123 W/m² | - |
| 1777407211 | 16.67° C | 79% | 1020 hPa | 0 mm | - | 100 W/m² | - |
| 1777406906 | 16.67° C | 79% | 1020.2 hPa | 0 mm | - | 141 W/m² | - |
| 1777406601 | 16.67° C | 79% | 1020.2 hPa | 0 mm | - | 178 W/m² | - |
| 1777406297 | 16.67° C | 80% | 1020.3 hPa | 0 mm | - | 199 W/m² | - |
| 1777405996 | 16.67° C | 79% | 1020.5 hPa | 0 mm | - | 200 W/m² | - |
| 1777405693 | 16.67° C | 79% | 1020.6 hPa | 0 mm | - | 210 W/m² | - |
| 1777405390 | 16.67° C | 80% | 1020.4 hPa | 0 mm | - | 204 W/m² | - |
| 1777405086 | 16.67° C | 78% | 1020.4 hPa | 0 mm | - | 270 W/m² | - |
* Rain latest hour (hover to see other rain measurements)
** Current wind speed in m/s (hover to see current wind gust speed)